星链-35797(STARLINK-35797)

导读

STARLINK-35850是美国SpaceX公司星链星座的第二代低轨通信卫星,于2025年11月6日发射入轨。作为星链Gen2星座组网卫星,它配备增强型相控阵天线与激光星间链路,单星容量超100Gbps,可提供百兆以上下行速率,支持全球宽带接入与手机直连潜力。卫星采用氪离子霍尔推进器,具备自主避撞能力,退役后会主动离轨在大气层焚毁,服务全球覆盖的高速低延迟互联网接入。

基本信息
目录编号:
66352
目录名称:
STARLINK-35850
国际标识:
2025-254E
轨道中心:
EARTH
卫星名称:
星链-35797
卫星全名:
星链-35797(STARLINK-35797)
卫星状态:
在轨 (已飞行302 天)
发射日期:
2025-11-06 UTC
国别 :
美国 (US)
星等 :
--
轨道信息
数据来源 国际轨道数据
星历时间: 2026-09-04T11:41:14+0800
5小时前
查看轨道信息
半长轴: 6840.821km
偏心率: 0.0001247
轨道倾角: 53.158°
近地点辐角 99.813°
升交点赤经 121.780°
平近点角 260.302°
近地点: 461.83km
远地点: 463.538km
周期: 93.847分钟
每日圈数: 15.344068
详细信息
固有亮度:
5
最大亮度:
2.5
卫星平台:
Starlink V1.0
覆盖范围:
全球
运营商:
太空探索技术公司
运营商所在国:
美国
制造商(研发单位):
太空探索技术公司
制造商所在国:
美国
使用方式:
暂无
卫星简介
Starlink 计划是 SpaceX 推出的全球卫星互联网项目,通过发射低轨道卫星,为全球尤其是偏远地区提供高速、低延迟的互联网服务。自 2019 年起,Starlink 已部署数千颗卫星,旨在缩小全球数字鸿沟,推动互联网普及。该项目还为军事、航空等行业提供通信支持,带来广泛经济效益。
2D轨道图
3D轨道图
轨道高度分析图
轨道倾角分析图
轨道综合分析图
查看轨道综合分析图
交会数据列表
事件ID 空间交会对象 最接近时刻(TCA) 交会距离 交会风险概率(CRP) 交会风险指数(CRI) 操作
CDM_260904-202605-703806-635222
2026-09-04T
20:26:37+0000
2.379 km
极远距离
1.777465E-6 低风险 0.4
CDM_260903-041205-479306-635221
2026-09-03T
04:12:36+0000
2.677 km
极远距离
1.398179E-6 低风险 0.38
CDM_260905-194705-228106-635221
2026-09-05T
19:47:20+0000
2.527 km
极远距离
1.301876E-6 低风险 0.37
CDM_260904-070504-975406-635221
2026-09-04T
07:05:40+0000
2.875 km
极远距离
9.579457E-7 极低风险 0.35